This is the latest recevied weather packets stored in our database for station/object ZL2IH. If no packets are shown the sender has not sent any weather packets the latest 10 day(s).
| Time | Temp. | Humidity | Pressure | Rain* | Wind** | Luminosity | Snow |
|---|---|---|---|---|---|---|---|
| 1777208417 | 9.44° C | 100% | 1019.4 hPa | 0 mm | - | - | - |
| 1777205417 | 9.44° C | 100% | 1019.1 hPa | 0 mm | - | - | - |
| 1777200619 | 10° C | 100% | 1019 hPa | 0 mm | - | - | - |
| 1777197618 | 10.56° C | 100% | 1019 hPa | 0 mm | - | - | - |
| 1777196418 | 11.11° C | 100% | 1018.9 hPa | 0 mm | - | - | - |
| 1777192218 | 11.67° C | 100% | 1018.8 hPa | 0 mm | - | - | - |
| 1777188618 | 12.22° C | 100% | 1018.5 hPa | 0 mm | - | - | - |
| 1777187418 | 12.22° C | 100% | 1018.3 hPa | 0 mm | - | - | - |
| 1777180218 | 13.89° C | 100% | 1018.1 hPa | 0 mm | - | - | - |
| 1777176018 | 15.56° C | 100% | 1018.8 hPa | 0 mm | - | - | - |
| 1777173618 | 16.67° C | 100% | 1018.9 hPa | 0 mm | - | - | - |
| 1777171818 | 16.67° C | 100% | 1018.5 hPa | 0 mm | - | - | - |
| 1777170658 | 17.22° C | 100% | 1019 hPa | 0 mm | - | - | - |
| 1777167618 | 17.78° C | 100% | 1019.4 hPa | 0 mm | - | - | - |
| 1777161017 | 16.67° C | 100% | 1021 hPa | 0 mm | - | - | - |
| 1777160418 | 16.11° C | 100% | 1021 hPa | 0 mm | - | - | - |
| 1777156217 | 13.33° C | 100% | 1021.7 hPa | 0 mm | - | - | - |
| 1777155617 | 12.78° C | 100% | 1021.9 hPa | 0 mm | - | - | - |
| 1777154417 | 12.78° C | 100% | 1021.8 hPa | 0 mm | - | - | - |
| 1777152657 | 12.22° C | 100% | 1021.9 hPa | 0 mm | - | - | - |
| 1777150217 | 11.11° C | 100% | 1022.2 hPa | 0 mm | - | - | - |
| 1777149017 | 11.67° C | 100% | 1022.4 hPa | 0 mm | - | - | - |
| 1777144817 | 9.44° C | 100% | 1021.8 hPa | 0 mm | - | - | - |
| 1777143017 | 9.44° C | 100% | 1021.7 hPa | 0 mm | - | - | - |
| 1777138217 | 9.44° C | 100% | 1021.8 hPa | 0 mm | - | - | - |
* Rain latest hour (hover to see other rain measurements)
** Current wind speed in m/s (hover to see current wind gust speed)